Latest Weather Observations for Nambour

IDQ60801

Issued at 7:07 pm EST Wednesday 28 January 2015 (issued every 30 minutes, with the page automatically refreshed every 10 minutes)

About weather observations | Map of weather stations | Latest weather observations for QLD | Other Formats
Station Details ID: 040988 Name: NAMBOUR DAFF - HILLSIDE Lat: -26.64 Lon: 152.94 Height: 53.24 m
Data from the previous 72 hours. | See also: Recent months at Nambour
Date/Time
EST
Temp
°C
App
Temp
°C
Dew
Point
Rel
Hum
%
Delta-T
°C
Wind Press
QNH
hPa
Press
MSL
hPa
Rain
since 9 am
mm
Dir
 
Spd
km/h
Gust
km/h
Spd
kts
Gust
kts
28/07:00pm 21.9 23.7 17.5 76 2.7 W 4 13 2 7 1007.1 1006.9 4.2
28/06:30pm 22.1 23.4 17.2 74 3.0 WSW 6 11 3 6 1007.0 1006.8 4.2
28/06:00pm 22.3 23.7 17.4 74 3.0 SW 6 11 3 6 1006.6 1006.4 4.2
28/05:30pm 22.7 24.3 17.8 74 3.1 SSW 6 15 3 8 1006.4 1006.2 4.2
28/05:00pm 23.4 25.6 19.1 77 2.7 S 6 13 3 7 1005.9 1005.7 4.2
28/04:30pm 23.9 26.8 19.8 78 2.7 SSE 4 9 2 5 1005.6 1005.4 4.2
28/04:00pm 23.6 26.7 19.5 78 2.6 SSW 2 6 1 3 1005.5 1005.3 4.2
28/03:30pm 23.1 26.7 19.7 81 2.2 CALM 0 0 0 0 1005.6 1005.4 4.2
28/03:00pm 22.8 26.0 19.8 83 1.9 S 2 4 1 2 1005.9 1005.7 4.2
28/02:30pm 22.5 25.5 19.3 82 2.0 SSW 2 6 1 3 1005.8 1005.6 4.0
28/02:00pm 22.5 25.1 19.3 82 2.0 SW 4 9 2 5 1005.6 1005.4 3.8
28/01:30pm 22.7 25.9 19.7 83 1.9 ENE 2 7 1 4 1005.7 1005.5 3.4
28/01:00pm 22.7 26.0 19.9 84 1.8 W 2 6 1 3 1006.2 1006.0 2.4
28/12:30pm 22.3 25.9 19.7 85 1.7 CALM 0 7 0 4 1006.4 1006.2 2.0
28/12:00pm 22.4 25.3 19.0 81 2.2 SSE 2 6 1 3 1006.2 1006.0 0.6
28/11:30am 22.8 25.6 18.8 78 2.5 SW 2 9 1 5 1006.8 1006.6 0.0
28/11:00am 23.6 25.8 18.3 72 3.3 WSW 4 11 2 6 1006.6 1006.4 0.0
28/10:30am 23.5 25.7 18.4 73 3.2 S 4 9 2 5 1006.8 1006.6 0.0
28/10:00am 23.3 25.1 18.2 73 3.2 SE 6 17 3 9 1006.8 1006.6 0.0
28/09:30am 23.5 25.4 18.6 74 3.1 SSE 6 9 3 5 1006.5 1006.3 0.0
28/09:00am 23.2 24.9 18.1 73 3.2 SE 6 17 3 9 1006.1 1005.9 2.6
28/08:30am 22.4 24.7 17.8 75 2.9 E 2 9 1 5 1006.0 1005.8 2.6
28/08:00am 21.9 23.7 17.5 76 2.7 SW 4 11 2 6 1005.9 1005.7 2.6
28/07:30am 21.5 23.4 17.7 79 2.4 ESE 4 7 2 4 1006.0 1005.8 2.6
28/07:00am 20.9 22.8 18.5 86 1.5 SW 6 9 3 5 1005.9 1005.7 2.6
28/06:30am 20.6 22.9 18.5 88 1.3 WSW 4 11 2 6 1005.8 1005.6 2.6
28/06:00am 20.6 23.2 18.5 88 1.3 WNW 2 6 1 3 1005.3 1005.1 2.6
28/05:30am 21.0 23.2 18.4 85 1.6 SE 4 9 2 5 1005.0 1004.8 2.4
28/05:00am 21.2 24.0 18.9 87 1.5 W 2 7 1 4 1005.1 1004.9 2.2
28/04:30am 21.3 23.9 19.2 88 1.3 SW 4 7 2 4 1005.1 1004.9 2.2
28/04:00am 21.4 24.2 19.7 90 1.1 WSW 4 7 2 4 1005.0 1004.8 2.2
28/03:30am 21.6 25.0 20.1 91 1.0 W 2 7 1 4 1004.8 1004.6 2.2
28/03:00am 21.7 25.1 20.2 91 1.0 WSW 2 7 1 4 1005.0 1004.8 2.2
28/02:30am 21.9 25.3 20.2 90 1.1 WSW 2 6 1 3 1005.2 1005.0 2.2
28/02:00am 21.9 25.4 20.4 91 1.0 W 2 6 1 3 1005.7 1005.5 2.2
28/01:30am 22.1 25.8 20.7 92 0.9 WSW 2 7 1 4 1006.0 1005.8 2.0
28/01:00am 22.1 25.9 20.9 93 0.8 SW 2 4 1 2 1006.4 1006.2 1.6
28/12:30am 22.2 26.3 20.8 92 0.9 CALM 0 2 0 1 1006.5 1006.3 1.0
28/12:00am 22.4 25.9 20.3 88 1.4 WSW 2 6 1 3 1006.5 1006.3 0.4
 
Date/Time
EST
Temp
°C
App
Temp
°C
Dew
Point
Rel
Hum
%
Delta-T
°C
Wind Press
QNH
hPa
Press
MSL
hPa
Rain
since 9 am
mm
Dir
 
Spd
km/h
Gust
km/h
Spd
kts
Gust
kts
27/11:30pm 22.9 26.6 19.9 83 1.9 CALM 0 6 0 3 1006.7 1006.5 0.0
27/11:00pm 23.5 26.6 19.6 79 2.5 S 2 7 1 4 1006.9 1006.7 0.0
27/10:30pm 23.7 27.1 19.4 77 2.8 CALM 0 2 0 1 1006.9 1006.7 0.0
27/10:00pm 24.5 27.0 19.1 72 3.5 SE 4 9 2 5 1007.2 1007.0 0.0
27/09:30pm 24.7 26.9 19.1 71 3.6 SE 6 11 3 6 1007.0 1006.8 0.0
27/09:00pm 24.8 27.9 19.6 73 3.4 SSE 2 9 1 5 1007.1 1006.9 0.0
27/08:30pm 24.7 27.4 19.5 73 3.3 ESE 4 7 2 4 1006.6 1006.4 0.0
27/08:00pm 24.9 27.3 19.7 73 3.4 SE 6 11 3 6 1006.7 1006.5 0.0
27/07:30pm 25.3 27.9 20.1 73 3.4 SE 6 11 3 6 1006.3 1006.1 0.0
27/07:00pm 25.2 28.5 20.7 76 3.0 SE 4 7 2 4 1006.0 1005.8 0.0
27/06:30pm 25.6 28.1 20.2 72 3.5 E 7 17 4 9 1005.6 1005.4 0.0
27/06:00pm 25.8 28.1 19.9 70 3.8 ESE 7 17 4 9 1005.4 1005.2 0.0
27/05:30pm 26.0 28.3 20.6 72 3.5 ESE 9 15 5 8 1005.0 1004.8 0.0
27/05:00pm 26.6 29.2 20.4 69 4.1 E 7 17 4 9 1004.8 1004.6 0.0
27/04:30pm 26.6 28.6 20.0 67 4.3 E 9 20 5 11 1004.9 1004.7 0.0
27/04:00pm 27.2 28.4 20.0 64 4.7 E 13 24 7 13 1004.9 1004.7 0.0
27/03:30pm 27.2 28.4 20.0 64 4.7 ESE 13 20 7 11 1005.0 1004.8 0.0
27/03:00pm 27.6 28.9 20.2 64 4.9 E 13 22 7 12 1005.0 1004.8 0.0
27/02:30pm 28.3 29.6 20.1 61 5.4 E 13 22 7 12 1005.4 1005.2 0.0
27/02:00pm 28.1 28.4 19.6 60 5.6 E 17 30 9 16 1005.8 1005.6 0.0
27/01:30pm 27.8 28.3 19.3 60 5.5 E 15 22 8 12 1006.2 1006.0 0.0
27/01:00pm 28.4 29.3 19.3 57 5.9 E 13 20 7 11 1006.3 1006.1 0.0
27/12:30pm 28.2 30.1 19.7 60 5.5 ESE 9 19 5 10 1006.5 1006.3 0.0
27/12:00pm 29.6 30.5 19.3 54 6.7 E 13 26 7 14 1006.8 1006.6 0.0
27/11:30am 29.4 30.5 18.8 53 6.9 E 11 24 6 13 1007.3 1007.1 0.0
27/11:00am 29.3 30.5 19.9 57 6.2 E 13 19 7 10 1007.7 1007.5 0.0
27/10:30am 29.1 32.3 21.3 62 5.2 SE 6 11 3 6 1007.9 1007.7 0.0
27/10:00am 27.5 30.0 20.3 65 4.7 ESE 7 17 4 9 1008.3 1008.1 0.0
27/09:30am 29.1 31.5 20.8 61 5.5 E 9 20 5 11 1008.0 1007.8 0.0
27/09:00am 27.9 30.0 20.2 63 5.1 ESE 9 17 5 9 1007.9 1007.7 1.4
27/08:30am 27.3 29.0 20.1 64 4.7 E 11 20 6 11 1007.5 1007.3 1.4
27/08:00am 27.3 30.0 21.3 69 4.0 ESE 9 19 5 10 1007.5 1007.3 1.4
27/07:30am 25.3 30.4 23.4 89 1.3 WSW 2 4 1 2 1007.5 1007.3 1.4
27/07:00am 24.1 28.6 22.9 93 0.8 SW 4 6 2 3 1007.5 1007.3 1.4
27/06:30am 23.7 28.9 22.9 95 0.5 CALM 0 2 0 1 1007.4 1007.2 1.4
27/06:00am 23.5 28.1 22.5 94 0.7 SW 2 6 1 3 1007.2 1007.0 0.6
27/05:30am 24.0 28.6 22.4 91 1.1 S 2 13 1 7 1007.1 1006.9 0.4
27/05:00am 23.6 28.3 22.0 91 1.1 CALM 0 0 0 0 1006.8 1006.6 0.0
27/04:30am 23.7 28.5 22.1 91 1.1 CALM 0 4 0 2 1006.7 1006.5 0.0
27/04:00am 23.8 28.2 22.1 90 1.1 SW 2 6 1 3 1006.6 1006.4 0.0
27/03:30am 23.6 27.9 22.0 91 1.1 SW 2 6 1 3 1006.1 1005.9 0.0
27/03:00am 23.6 28.3 21.9 90 1.1 CALM 0 4 0 2 1006.0 1005.8 0.0
27/02:30am 24.0 28.7 21.9 88 1.4 CALM 0 2 0 1 1006.1 1005.9 0.0
27/02:00am 24.2 28.6 22.1 88 1.4 SSW 2 4 1 2 1006.1 1005.9 0.0
27/01:30am 24.2 28.5 21.9 87 1.5 SE 2 6 1 3 1006.2 1006.0 0.0
27/01:00am 24.6 29.0 22.1 86 1.7 ENE 2 6 1 3 1006.5 1006.3 0.0
27/12:30am 24.8 29.6 22.1 85 1.8 CALM 0 4 0 2 1007.3 1007.1 0.0
27/12:00am 25.1 29.7 21.8 82 2.2 CALM 0 2 0 1 1007.9 1007.7 0.0
 
Date/Time
EST
Temp
°C
App
Temp
°C
Dew
Point
Rel
Hum
%
Delta-T
°C
Wind Press
QNH
hPa
Press
MSL
hPa
Rain
since 9 am
mm
Dir
 
Spd
km/h
Gust
km/h
Spd
kts
Gust
kts
26/11:30pm 25.1 29.2 21.6 81 2.3 WSW 2 6 1 3 1008.1 1007.9 0.0
26/11:00pm 25.5 30.1 21.8 80 2.5 CALM 0 6 0 3 1008.5 1008.2 0.0
26/10:30pm 25.8 29.8 22.1 80 2.5 SE 4 9 2 5 1008.8 1008.5 0.0
26/10:00pm 25.8 30.2 22.1 80 2.5 E 2 7 1 4 1008.6 1008.3 0.0
26/09:30pm 26.1 30.2 22.2 79 2.6 SE 4 9 2 5 1008.5 1008.2 0.0
26/09:00pm 26.4 30.1 22.5 79 2.6 SE 7 15 4 8 1008.3 1008.1 0.0
26/08:30pm 26.6 31.3 23.3 82 2.3 E 4 9 2 5 1008.2 1008.0 0.0
26/08:00pm 26.6 31.4 23.5 83 2.1 E 4 7 2 4 1008.0 1007.8 0.0
26/07:30pm 26.8 31.6 23.5 82 2.3 E 4 7 2 4 1007.8 1007.6 0.0
26/07:00pm 27.1 31.7 23.8 82 2.3 SE 6 13 3 7 1007.3 1007.1 0.0
26/06:30pm 27.2 32.2 23.9 82 2.3 ESE 4 7 2 4 1007.4 1007.2 0.0
26/06:00pm 27.4 32.2 24.1 82 2.3 ESE 6 9 3 5 1006.8 1006.6 0.0
26/05:30pm 27.5 32.0 23.9 81 2.5 ESE 7 13 4 7 1006.5 1006.3 0.0
26/05:00pm 27.7 32.7 23.9 80 2.6 SE 4 15 2 8 1005.6 1005.4 0.0
26/04:30pm 27.9 32.6 23.9 79 2.8 ESE 6 13 3 7 1005.5 1005.3 0.0
26/04:00pm 28.1 32.8 24.3 80 2.6 ESE 7 13 4 7 1005.1 1004.9 0.0
26/03:30pm 28.6 32.9 24.2 77 3.1 E 9 17 5 9 1004.9 1004.7 0.0
26/03:00pm 28.5 33.4 24.3 78 2.9 ESE 6 11 3 6 1005.7 1005.5 0.0
26/02:30pm 28.2 33.3 24.0 78 2.9 ESE 4 9 2 5 1005.8 1005.6 0.0
26/02:00pm 28.6 32.4 23.5 74 3.5 ESE 9 17 5 9 1006.0 1005.8 0.0
26/01:30pm 29.5 33.3 23.4 69 4.2 E 9 17 5 9 1005.2 1005.0 0.0
26/01:00pm 30.3 33.9 23.0 65 5.0 E 9 17 5 9 1005.5 1005.3 0.0
26/12:30pm 31.8 35.3 23.6 62 5.7 E 11 20 6 11 1005.9 1005.7 0.0
26/12:00pm 31.3 34.5 22.3 58 6.2 ESE 9 15 5 8 1005.9 1005.7 0.0
26/11:30am 32.3 35.9 23.8 61 5.9 E 11 20 6 11 1006.2 1006.0 0.0
26/11:00am 31.5 35.2 24.6 67 4.9 ENE 13 19 7 10 1006.4 1006.2 0.0
26/10:30am 30.6 35.0 23.8 67 4.7 ESE 7 11 4 6 1006.8 1006.6 0.0
26/10:00am 30.9 35.7 23.5 64 5.1 E 4 9 2 5 1006.9 1006.7 0.0
26/09:30am 30.1 34.7 23.8 69 4.4 ESE 6 11 3 6 1007.0 1006.8 0.0
26/09:00am 29.6 34.2 23.8 71 4.0 ESE 6 9 3 5 1007.0 1006.8 0.0
26/08:30am 29.0 34.1 24.6 77 3.1 ESE 6 11 3 6 1007.1 1006.9 0.0
26/08:00am 27.3 33.2 24.7 86 1.8 ESE 2 6 1 3 1007.1 1006.9 0.0
26/07:30am 26.6 33.1 25.6 94 0.7 WSW 2 6 1 3 1007.2 1007.0 0.0
26/07:00am 25.3 31.5 24.6 96 0.5 CALM 0 0 0 0 1007.3 1007.1 0.0
26/06:30am 25.0 31.1 24.5 97 0.3 CALM 0 0 0 0 1006.7 1006.5 0.0
26/06:00am 24.7 30.7 24.2 97 0.3 CALM 0 0 0 0 1006.3 1006.1 0.0
26/05:30am 24.5 30.3 24.0 97 0.3 CALM 0 0 0 0 1005.8 1005.6 0.0
26/05:00am 24.2 29.8 23.5 96 0.5 CALM 0 4 0 2 1005.3 1005.1 0.0
26/04:30am 24.4 29.7 23.7 96 0.5 SSE 2 4 1 2 1004.9 1004.7 0.0
26/04:00am 24.3 29.9 23.6 96 0.5 CALM 0 0 0 0 1004.9 1004.7 0.0
26/03:30am 24.4 30.1 23.7 96 0.5 CALM 0 0 0 0 1005.0 1004.8 0.0
26/03:00am 24.7 30.5 24.0 96 0.5 CALM 0 0 0 0 1005.1 1004.9 0.0
26/02:30am 25.0 30.3 24.3 96 0.5 S 4 6 2 3 1005.1 1004.9 0.0
26/02:00am 24.6 30.0 23.9 96 0.5 W 2 4 1 2 1005.2 1005.0 0.0
26/01:30am 24.9 30.7 24.0 95 0.6 CALM 0 0 0 0 1005.4 1005.2 0.0
26/01:00am 25.0 30.9 24.1 95 0.6 CALM 0 0 0 0 1005.5 1005.3 0.0
26/12:30am 25.3 31.4 24.4 95 0.6 CALM 0 0 0 0 1006.2 1006.0 0.0
26/12:00am 25.5 31.3 24.6 95 0.6 SE 2 6 1 3 1006.5 1006.3 0.0
 
Date/Time
EST
Temp
°C
App
Temp
°C
Dew
Point
Rel
Hum
%
Delta-T
°C
Wind Press
QNH
hPa
Press
MSL
hPa
Rain
since 9 am
mm
Dir
 
Spd
km/h
Gust
km/h
Spd
kts
Gust
kts
25/11:30pm 25.3 31.3 24.3 94 0.7 CALM 0 0 0 0 1006.3 1006.1 0.0
25/11:00pm 25.4 31.5 24.5 95 0.6 CALM 0 0 0 0 1006.3 1006.1 0.0
25/10:30pm 25.5 31.5 24.3 93 0.8 CALM 0 0 0 0 1005.9 1005.7 0.0
25/10:00pm 25.8 32.0 24.6 93 0.8 CALM 0 0 0 0 1006.3 1006.1 0.0
25/09:30pm 26.2 32.5 24.8 92 1.0 CALM 0 0 0 0 1006.1 1005.9 0.0
25/09:00pm 26.3 32.4 24.5 90 1.3 CALM 0 2 0 1 1005.9 1005.7 0.0
25/08:30pm 26.6 32.5 24.1 86 1.7 CALM 0 0 0 0 1005.5 1005.3 0.0
25/08:00pm 27.6 33.3 23.8 80 2.6 CALM 0 2 0 1 1005.5 1005.3 0.0
25/07:30pm 28.1 33.1 23.9 78 2.9 NNW 4 6 2 3 1005.5 1005.3 0.0

Other Formats:

Comma delimited format used in spreadsheet applications
http://www.bom.gov.au/fwo/IDQ60801/IDQ60801.95572.axf

JavaScript Object Notation format (JSON) in row-major order
http://www.bom.gov.au/fwo/IDQ60801/IDQ60801.95572.json